Wind_Speed
8 9 8 5 4 5 7 8 12 16 16 14 15 14 13 13 14 14 14 19 23 23 24 25 27 29 29 28 28 28 29 31 32 31 30 31 30 28 25 23 24 24 24 24 26 28 28 28 27 27 30 33 37 38 38 37 35 35 38 41 42 42 41 40 41 40 38 38 37 36 35 34 33 34 36 37 39 40 41 41 41 41 42 42 42 41
6 5 4 6 7 10 12 13 14 15 13 13 15 16 16 16 17 18 16 20 25 25 25 25 27 31 32 32 32 31 33 34 33 32 32 31 31 30 28 27 25 24 23 23 24 26 28 29 27 27 29 32 34 36 38 39 39 37 36 38 41 44 44 40 39 41 43 43 41 38 37 36 34 32 34 38 42 43 42 43 45 44 43 43 42 41
3 3 6 11 13 13 12 11 11 10 11 12 13 15 18 18 17 15 13 18 23 23 24 24 29 36 36 36 36 35 36 36 34 34 33 32 33 32 31 30 28 27 25 24 24 24 25 27 28 28 29 31 32 34 36 38 40 41 40 39 40 43 47 47 43 41 40 42 43 43 41 38 37 35 34 36 40 42 42 44 45 44 44 43 42 42
2 3 8 12 12 11 10 12 12 13 15 15 15 16 18 16 14 13 14 17 18 19 24 27 33 41 41 40 41 38 37 37 35 35 35 34 34 32 31 30 30 29 27 26 25 24 24 26 27 28 29 30 32 34 35 36 38 41 43 43 43 42 44 48 50 49 46 43 43 44 44 42 41 41 41 39 36 36 40 45 46 43 41 40 40 40
7 8 10 10 10 12 14 16 17 18 17 16 15 16 18 17 15 17 18 18 20 21 25 26 28 39 42 37 40 38 34 35 34 33 34 33 32 31 30 30 28 27 26 26 26 25 24 25 26 28 28 29 31 33 35 35 36 38 40 43 45 45 45 45 49 53 55 54 51 49 48 46 45 45 46 47 43 37 36 39 40 38 36 36 37 38
13 14 14 13 15 17 17 18 17 16 15 13 13 15 16 15 14 18 18 18 20 18 15 12 11 25 34 30 34 36 32 35 36 35 36 35 33 32 31 30 27 24 24 25 26 26 24 24 24 26 27 28 29 31 33 35 35 36 38 40 43 45 46 46 46 49 53 56 57 57 56 54 52 51 50 50 50 49 44 36 30 28 27 29 32 34
17 17 16 16 16 16 17 19 18 15 16 15 14 16 16 14 15 17 18 17 14 10 6 6 6 18 35 42 41 39 39 41 40 37 39 38 37 36 34 33 29 25 23 23 25 26 25 24 24 24 25 27 28 29 30 33 35 36 37 38 40 42 45 46 46 47 49 51 53 56 58 58 58 59 58 56 54 55 54 45 35 29 26 25 25 27
15 15 16 17 19 20 22 22 17 14 15 16 16 17 16 16 16 14 15 16 14 14 14 17 17 16 33 50 41 34 40 41 39 38 37 37 37 36 34 33 32 28 24 23 24 25 25 25 25 25 25 26 27 27 28 31 33 35 37 38 38 39 42 45 46 47 48 49 51 52 54 56 57 58 60 62 62 61 60 55 48 39 32 31 31 31
20 22 25 26 27 28 26 22 17 14 16 17 18 20 19 18 17 16 16 16 16 16 17 25 24 11 24 46 34 29 38 36 36 38 36 37 36 34 32 30 30 28 25 24 24 24 25 25 26 26 26 27 27 28 28 29 30 31 34 37 39 39 39 42 44 47 48 49 50 51 52 53 54 56 57 59 63 66 66 64 60 53 44 41 39 37
28 29 31 31 32 31 27 22 20 19 18 19 21 22 22 20 21 20 19 20 17 11 17 32 30 11 19 43 32 26 34 30 30 32 29 32 33 32 30 26 27 27 25 24 23 23 24 25 26 26 26 27 28 29 28 28 28 28 31 35 37 38 39 40 42 44 46 49 51 51 52 53 53 55 56 57 59 62 65 66 65 62 57 54 49 43
32 32 33 33 32 30 28 27 26 23 20 23 24 22 22 23 25 22 18 18 10 8 25 43 40 19 13 32 35 30 31 27 26 26 23 26 30 31 28 22 25 28 28 27 25 24 24 25 26 27 28 28 29 30 30 29 29 29 30 33 35 36 37 39 41 42 44 45 48 50 51 53 54 54 54 55 57 58 60 62 62 61 58 58 58 56
28 27 29 28 26 23 24 26 26 26 24 25 26 24 21 19 18 16 15 15 6 8 29 39 36 27 17 27 39 37 36 34 31 31 30 26 24 24 22 21 23 25 29 31 29 28 26 25 26 27 28 29 30 31 31 31 31 31 31 32 33 35 36 38 39 41 43 44 46 48 49 52 54 54 54 54 54 55 55 55 56 56 55 54 54 56
25 25 25 24 24 22 22 25 25 25 26 27 27 21 12 6 6 6 7 9 7 13 28 28 22 21 21 31 43 40 38 37 32 32 33 28 23 22 25 26 25 26 29 29 25 25 27 25 26 28 29 30 31 32 33 32 32 32 32 32 33 34 35 37 38 40 42 43 45 45 47 49 51 53 53 53 53 52 52 51 52 53 54 54 52 52
24 25 25 24 26 25 24 26 24 20 19 23 25 21 12 3 2 5 5 4 6 16 28 28 20 13 16 27 36 33 27 23 21 23 22 23 23 23 25 27 27 28 27 24 22 23 26 26 27 28 29 31 32 34 34 34 34 33 32 32 33 34 34 35 37 38 40 42 44 45 45 47 49 50 51 51 51 51 51 51 51 52 53 54 53 52
16 17 17 15 16 17 18 20 20 18 17 17 20 20 20 16 9 5 4 3 4 11 19 19 13 7 10 16 19 14 8 4 7 11 10 12 17 19 21 23 26 28 26 25 28 30 31 32 33 32 31 32 32 34 35 35 36 35 35 34 33 33 34 35 35 36 38 40 42 43 45 46 47 48 49 49 50 50 51 51 51 52 53 54 54 54
15 18 17 16 16 14 12 12 15 19 20 18 19 21 24 27 23 14 11 12 9 7 8 9 9 9 10 10 8 7 9 11 14 17 17 17 18 20 22 22 23 23 22 22 25 28 29 31 35 37 37 35 34 33 34 35 36 37 36 36 35 34 35 35 35 35 37 38 40 41 43 44 45 47 47 48 49 49 50 50 50 51 52 54 55 55
10 14 14 17 20 19 17 15 16 17 16 15 17 20 23 25 24 18 16 20 17 10 10 14 15 19 19 18 21 23 25 26 24 21 20 19 17 16 17 19 19 19 19 19 21 24 25 26 30 34 36 37 38 37 35 34 36 38 38 37 36 37 36 36 35 36 36 37 38 39 41 42 43 44 45 47 48 48 47 47 47 47 49 52 54 55
11 16 17 16 16 17 19 19 20 20 18 16 16 16 17 19 22 20 10 9 10 7 10 17 21 22 20 18 23 25 23 22 18 11 11 16 18 18 18 19 20 21 21 22 24 25 25 25 26 28 30 33 36 38 38 37 36 37 39 39 38 38 38 37 36 36 36 37 37 38 39 39 40 41 42 44 46 46 45 45 45 45 45 48 50 51
14 18 21 23 20 18 19 19 21 22 19 21 21 18 16 12 13 17 10 4 7 7 6 14 19 20 20 19 20 21 20 18 16 13 12 15 18 18 19 21 20 21 22 23 25 24 23 24 24 24 27 30 32 35 37 39 38 37 37 38 39 40 39 39 38 37 37 37 37 38 37 37 37 38 39 40 42 43 43 43 42 42 44 46 48 48
17 12 13 18 20 20 21 20 20 20 19 21 25 25 24 18 14 17 15 8 5 5 7 11 11 11 14 13 11 15 19 15 14 17 18 18 20 19 18 20 21 21 21 22 23 23 22 24 24 24 25 27 30 33 35 37 39 38 37 37 38 40 40 40 39 38 38 37 37 37 37 36 35 35 36 37 39 40 40 40 40 43 45 47 47 45
20 16 13 16 16 18 20 16 15 16 15 17 20 20 20 19 19 20 21 20 12 4 3 6 6 6 7 6 5 5 8 9 12 18 20 18 19 19 17 16 19 21 21 23 24 24 25 26 27 28 28 28 29 30 32 34 37 38 37 37 37 39 40 40 40 39 39 38 37 37 37 36 35 34 34 35 37 38 38 39 41 44 46 45 42 40
19 17 17 21 21 21 20 16 16 17 12 11 14 17 15 13 12 8 10 20 23 15 8 7 6 5 8 8 5 3 5 9 13 16 18 16 14 16 16 15 16 19 21 22 24 26 28 29 30 31 31 32 32 31 31 32 33 36 37 36 36 37 39 40 40 40 40 39 38 38 38 37 36 34 33 34 36 39 39 38 40 42 41 40 38 37
19 18 21 27 27 26 25 21 21 19 14 11 12 17 18 15 12 8 4 9 16 16 16 13 9 10 14 11 7 6 9 14 17 18 19 17 13 13 16 16 15 17 19 19 20 22 25 28 30 30 30 30 31 32 32 32 32 32 33 34 35 36 38 39 40 39 39 39 39 38 38 38 37 35 33 33 35 38 38 36 37 38 37 37 36 35
16 15 17 21 23 25 25 26 27 25 22 22 21 22 23 20 16 14 13 12 12 12 12 8 5 12 20 17 11 10 14 16 18 20 20 19 17 15 16 19 19 17 19 20 19 19 20 22 26 28 28 28 28 29 30 32 32 31 31 31 32 34 36 39 39 39 39 39 38 38 38 38 38 36 35 34 35 37 37 36 36 35 35 35 34 32
12 13 10 10 13 15 14 15 19 20 21 24 23 20 19 19 16 14 15 15 13 14 17 10 5 13 22 21 16 18 23 22 22 24 24 24 23 21 20 23 25 23 22 22 22 21 21 22 23 26 27 28 28 28 28 29 31 32 32 31 30 30 33 36 38 38 38 38 38 38 38 38 38 38 37 36 36 36 37 36 35 34 34 33 33 32
17 20 15 8 6 7 6 6 6 8 12 15 15 14 14 14 13 13 15 13 8 14 23 18 13 22 28 29 27 26 25 26 28 27 27 27 28 28 27 26 28 29 28 26 26 25 24 23 24 24 26 27 27 29 29 30 31 32 33 32 30 29 29 32 35 36 37 38 39 39 39 39 38 38 37 37 36 36 35 35 34 34 34 33 33 33
20 23 23 19 18 18 20 21 20 21 24 25 25 26 25 23 21 19 17 16 13 16 24 25 22 25 29 30 32 30 27 29 32 32 31 31 30 31 29 28 27 29 30 29 28 28 27 26 25 25 26 26 26 27 28 29 30 31 33 33 32 30 29 30 32 34 35 37 38 39 38 38 38 37 37 36 36 35 35 35 35 34 34 34 33 33
19 22 24 24 25 27 29 30 30 29 30 30 31 36 39 37 36 31 25 25 25 20 21 28 30 29 29 29 32 36 37 37 38 38 38 37 35 34 34 33 30 28 28 29 28 28 29 29 28 27 27 27 27 26 26 27 28 29 30 32 32 31 30 29 30 32 33 34 37 37 37 37 36 35 35 35 35 36 36 36 36 35 34 33 32 32
18 20 22 22 23 25 27 28 28 28 28 28 28 33 39 42 43 41 36 34 31 25 25 32 36 36 36 36 37 42 45 45 45 45 44 43 43 42 42 40 37 32 30 30 28 28 29 30 30 29 29 29 28 27 26 26 26 26 27 30 31 31 30 29 29 30 31 32 35 35 35 34 34 34 34 34 35 35 35 35 34 34 33 32 32 31
16 20 21 21 22 24 26 27 28 28 28 28 28 30 34 38 42 45 45 41 37 34 34 36 39 43 44 43 45 48 49 50 52 52 52 52 52 50 48 46 43 37 32 29 29 29 29 31 32 31 30 31 30 29 27 26 26 25 25 28 30 31 30 29 28 28 29 30 32 32 32 32 31 32 32 33 34 34 34 34 33 33 32 31 30 29
18 23 23 21 22 25 27 27 26 25 25 26 26 27 28 31 34 37 40 41 41 40 40 39 39 41 41 40 44 46 47 48 50 52 54 56 57 56 51 47 45 41 34 28 27 29 30 31 32 31 30 30 31 29 27 25 25 25 26 29 30 30 28 27 26 26 27 28 29 30 30 30 30 31 32 33 34 34 34 34 33 33 32 31 30 29
20 23 23 21 21 25 26 23 21 23 25 26 26 28 29 30 30 31 31 32 33 34 36 36 34 32 31 33 36 39 40 41 41 42 45 47 49 49 46 43 42 42 37 30 25 26 29 31 31 30 29 29 30 29 27 25 24 25 27 28 28 26 25 24 24 25 25 27 29 29 29 30 31 32 34 35 35 35 35 34 33 33 32 31 30 30
22 22 23 19 16 21 22 17 17 18 16 18 23 26 27 28 29 31 31 31 32 33 32 32 31 30 30 32 34 35 36 36 36 36 36 35 36 37 37 38 38 37 37 33 29 27 28 30 31 30 29 29 28 27 25 24 23 25 26 26 25 24 24 24 24 25 26 28 29 30 31 33 34 35 36 36 36 36 35 34 34 33 32 32 31 31
25 25 25 20 16 19 19 16 16 15 11 15 20 20 21 23 24 24 24 24 25 28 30 32 33 33 34 34 33 34 34 34 34 33 32 31 32 33 35 37 37 38 40 38 34 30 29 31 31 31 30 29 27 26 24 22 22 24 25 25 25 24 24 25 26 27 29 30 32 33 34 35 36 36 37 37 36 36 35 35 34 34 33 33 32 31
22 21 21 19 17 18 17 13 11 9 11 15 16 14 17 21 23 24 25 25 25 25 27 30 32 34 34 34 34 35 35 36 36 37 37 38 39 40 40 39 40 42 44 43 38 33 30 31 33 31 29 29 27 26 24 21 21 22 24 26 27 27 26 27 29 31 32 32 33 35 35 36 37 38 38 38 37 37 36 36 36 35 34 34 33 33
20 19 18 18 17 15 13 11 9 10 13 14 13 13 16 19 22 25 27 29 31 31 32 34 36 35 34 34 33 34 34 36 37 37 38 38 38 39 39 39 39 40 43 43 40 36 32 32 33 31 28 27 27 26 24 22 21 22 24 27 29 29 28 29 31 33 34 34 34 35 35 37 38 38 38 38 38 38 37 37 36 36 35 35 34 33
16 17 17 17 16 15 14 14 15 17 17 17 19 21 23 24 26 25 25 27 30 32 34 35 36 37 36 35 34 33 33 33 34 35 36 37 37 36 36 38 38 38 40 40 39 39 37 34 33 31 27 26 26 26 25 24 24 24 26 29 31 30 29 30 31 33 34 35 35 35 36 38 39 39 39 38 38 38 37 37 36 35 35 34 34 33
12 15 16 15 14 15 15 13 11 11 10 10 15 18 19 22 23 22 23 27 29 30 31 32 33 34 34 34 35 35 35 33 32 33 34 35 37 36 35 36 36 36 37 37 37 38 38 35 33 31 27 25 26 26 26 25 26 27 28 30 32 31 30 30 31 32 33 34 35 36 38 38 39 39 39 38 38 37 37 36 35 35 34 33 33 32
12 13 15 14 12 14 13 8 5 6 8 10 14 16 16 17 18 16 16 20 24 26 26 26 27 27 27 27 28 29 30 31 31 31 31 32 34 36 37 37 36 36 37 36 36 36 35 33 32 30 27 25 26 27 27 26 27 28 29 31 32 32 30 30 31 32 33 34 35 37 38 39 39 39 39 38 37 36 36 35 34 34 33 32 31 31
8 9 11 13 14 16 15 11 10 12 14 14 15 16 15 15 14 8 6 12 19 21 20 20 22 23 23 23 23 23 24 26 27 27 29 30 31 34 36 37 36 37 36 35 35 35 32 31 31 30 28 25 27 29 30 28 28 29 29 30 32 31 31 31 32 33 34 34 35 36 37 38 38 38 38 37 36 35 35 34 33 32 32 31 30 29
7 9 11 14 16 18 17 15 14 14 13 13 13 12 12 12 10 6 7 14 19 18 20 23 25 26 27 26 26 26 26 26 25 24 25 27 29 31 33 34 34 34 33 33 33 32 31 30 29 30 28 26 28 31 31 30 29 29 30 31 31 31 31 32 33 34 35 35 34 34 35 36 36 36 36 36 35 34 33 33 32 31 31 30 29 29
8 8 9 12 14 16 17 16 14 12 13 16 16 13 11 10 9 11 15 20 22 22 24 27 29 30 30 29 28 29 28 28 28 25 24 25 26 27 27 28 29 29 30 31 30 28 29 28 27 28 28 28 29 31 32 31 30 30 31 32 32 32 31 32 34 35 35 35 34 33 33 33 33 33 33 33 33 33 32 32 31 31 30 30 29 28
9 8 9 11 12 13 12 11 9 9 12 15 14 12 12 14 18 21 24 26 27 27 27 28 30 31 31 29 28 27 27 28 28 27 25 25 25 25 24 24 24 24 25 27 26 25 26 25 25 27 28 28 30 31 31 31 30 30 31 32 32 33 32 33 34 35 35 35 34 34 33 32 31 31 31 31 32 32 32 31 31 30 29 28 27 26
13 13 12 11 10 10 10 9 9 11 13 14 16 19 23 26 29 29 28 27 28 29 28 28 29 30 31 30 29 26 26 26 27 27 26 24 24 24 23 22 21 21 22 23 23 23 23 22 23 25 26 28 29 29 30 31 31 30 31 32 33 33 33 33 34 34 34 34 33 33 32 32 31 31 31 31 30 30 30 29 29 28 27 26 25 25
13 14 14 14 13 15 16 19 22 24 24 24 27 29 30 30 29 27 26 26 27 28 29 28 28 29 30 30 29 27 26 24 25 26 26 24 23 22 21 20 20 20 21 21 21 21 21 20 20 21 22 25 27 27 29 31 31 31 31 32 32 32 32 33 33 33 33 32 32 32 31 31 31 30 30 29 29 28 28 27 27 26 26 25 25 24
16 17 18 20 21 22 25 27 28 28 27 27 27 27 28 28 28 27 28 28 27 28 28 28 29 29 29 29 28 27 25 25 24 25 25 24 23 21 19 18 18 19 20 21 21 21 19 18 18 17 18 21 24 26 27 29 32 33 33 33 32 32 32 32 33 33 33 32 32 31 31 30 30 29 29 28 27 27 26 26 26 25 25 24 24 24
20 21 21 22 23 23 24 26 27 27 26 26 26 27 28 28 27 26 27 28 27 27 28 29 29 28 27 27 27 25 24 24 24 24 24 23 23 21 19 17 16 18 19 20 20 20 19 18 17 16 16 18 21 23 25 27 30 32 33 34 33 33 32 32 33 34 33 32 31 30 30 29 28 28 28 27 26 26 26 25 25 25 24 24 24 24
23 23 23 24 25 25 26 27 28 28 28 28 27 27 27 26 25 24 24 25 25 26 27 28 28 27 26 26 26 25 22 22 23 23 23 22 22 21 20 17 16 17 18 18 19 19 19 18 17 16 15 16 17 20 22 25 27 29 31 33 33 33 31 31 31 32 33 32 31 31 30 30 29 28 28 27 27 27 27 26 26 26 26 26 26 26
26 26 26 26 27 26 27 27 27 27 28 28 27 27 27 27 26 24 23 23 24 25 27 27 27 27 26 25 25 24 21 20 22 23 22 21 20 20 19 18 17 16 17 17 18 19 19 18 18 18 16 15 16 17 19 21 24 26 29 32 33 33 32 31 31 32 32 32 32 32 32 31 31 30 30 29 29 28 28 28 27 27 27 26 26 25
25 25 24 25 26 26 26 26 26 27 28 29 29 29 28 27 26 25 23 23 23 24 25 25 24 25 26 26 25 22 19 18 20 21 21 19 18 18 18 18 17 16 16 16 18 18 18 19 20 20 17 15 16 17 18 19 21 22 24 27 29 31 31 32 32 32 32 32 32 31 30 29 28 28 27 26 25 24 24 24 24 23 22 21 21 21
21 22 22 22 24 25 26 26 26 27 28 28 29 29 28 26 25 25 24 23 23 23 23 22 22 22 23 25 24 21 17 16 17 19 19 18 16 16 17 17 17 16 16 16 17 18 18 19 20 21 19 16 16 17 18 19 20 19 20 21 23 24 26 27 28 28 28 28 28 27 26 24 23 21 20 19 19 18 18 18 17 17 17 16 16 16
Wind_Direction
220 219 209 203 236 207 186 195 213 236 242 242 254 261 263 263 263 263 268 272 271 274 280 280 280 280 279 278 277 278 277 275 275 276 277 278 277 274 270 267 264 260 260 260 258 257 255 251 247 243 240 237 237 236 236 238 240 240 239 239 238 237 236 235 236 237 234 236 239 238 238 241 243 242 243 244 244 243 242 239 238 239 242 242 240 239
212 223 200 186 206 197 186 197 217 240 249 247 255 263 268 272 277 277 276 275 275 278 280 282 283 279 277 276 273 273 273 272 274 276 276 278 280 280 277 273 271 268 264 261 260 260 259 257 253 248 245 242 241 240 238 237 237 238 238 239 241 242 241 238 236 237 236 236 238 241 242 246 248 246 247 248 245 243 242 240 239 240 242 245 244 242
243 242 210 204 211 211 211 221 233 252 263 262 263 270 274 277 285 286 276 272 275 278 279 286 288 280 276 276 273 270 270 271 273 276 277 279 278 279 279 279 276 273 270 267 265 264 263 261 257 251 248 247 246 245 243 240 238 237 238 238 239 241 242 241 239 238 238 237 236 239 241 246 249 247 249 250 243 240 241 242 242 241 241 243 245 244
220 223 208 202 208 222 244 259 265 273 278 279 278 277 278 276 276 276 269 268 269 273 281 291 293 285 278 277 275 273 274 273 272 275 275 276 278 279 280 280 279 277 277 275 272 269 266 264 260 254 250 248 247 247 246 244 241 239 238 239 239 240 242 242 241 240 240 240 237 237 238 240 245 246 247 249 244 241 243 241 239 239 239 239 242 243
233 241 226 213 228 256 276 280 283 288 289 286 281 279 279 276 272 269 265 263 267 277 288 296 297 288 283 283 280 278 277 275 273 273 274 274 275 277 278 277 278 282 283 281 277 275 271 268 265 261 255 249 247 247 248 247 245 243 241 240 241 241 242 242 241 241 241 242 242 240 239 238 241 244 247 249 247 247 250 243 235 234 234 236 239 241
275 271 263 260 268 275 279 281 286 291 287 280 274 272 274 274 265 258 257 263 276 291 305 316 308 286 284 284 279 280 281 280 280 278 278 279 276 275 276 278 279 280 281 280 277 275 273 270 267 265 262 256 250 248 248 248 247 247 245 243 242 242 243 242 242 242 242 243 245 245 245 243 243 245 249 253 253 252 255 254 246 240 237 237 240 243
287 281 278 280 281 282 283 284 286 285 280 274 268 264 259 254 247 247 255 268 282 295 298 297 289 286 287 282 277 279 281 281 282 282 282 285 285 281 280 282 282 279 275 274 273 272 272 270 267 265 264 262 257 251 248 247 247 247 246 244 243 243 244 244 243 244 243 243 244 246 247 247 247 248 250 254 257 256 256 257 258 257 251 244 243 246
285 283 283 285 285 285 284 284 286 283 276 270 264 262 255 251 249 249 257 264 273 280 275 272 272 278 283 281 281 282 281 281 282 282 284 286 290 291 290 289 288 285 280 272 269 268 267 267 266 265 264 263 261 257 251 248 246 246 247 246 245 244 245 246 245 245 245 245 245 246 247 248 249 250 250 252 256 259 259 258 260 261 258 251 247 247
281 282 283 286 286 285 283 282 278 265 262 262 258 258 257 257 259 258 261 266 274 281 277 269 262 251 269 273 281 288 283 284 285 284 287 288 291 292 291 291 288 286 284 276 269 266 264 264 263 262 262 262 261 261 257 253 250 248 248 248 247 244 243 246 246 246 246 246 247 247 247 248 248 249 250 250 252 255 258 260 261 262 261 259 254 251
283 284 285 284 280 279 278 276 268 256 250 250 251 254 258 263 266 268 272 273 274 268 262 262 252 224 266 271 274 284 282 285 290 291 294 292 292 294 294 294 290 285 281 277 271 266 263 262 261 260 259 260 259 259 259 256 253 249 247 248 248 246 244 243 245 247 247 247 247 247 248 248 248 248 249 249 250 252 256 259 262 263 263 262 260 258
286 284 280 277 276 277 274 269 263 256 246 243 247 251 260 270 272 274 273 266 267 244 250 257 251 232 261 273 269 270 273 277 285 287 289 289 291 294 298 299 294 289 284 280 277 272 265 261 261 260 257 257 258 258 257 256 253 249 247 247 248 248 246 244 244 245 247 247 248 248 248 248 248 248 248 249 249 251 253 257 260 263 264 263 263 262
290 283 279 278 276 272 269 267 264 258 250 247 253 258 267 278 275 268 254 239 221 240 254 259 255 238 234 264 268 270 272 273 276 279 280 282 282 282 286 289 287 286 284 284 282 278 272 267 264 262 260 258 258 258 258 257 256 253 250 248 247 247 246 246 244 244 246 247 248 248 248 248 249 248 248 249 250 251 252 255 257 259 260 260 261 262
281 276 279 282 278 273 267 265 263 259 254 252 253 252 257 286 280 251 225 223 212 238 255 262 258 240 232 258 272 276 277 276 275 277 276 272 268 266 269 273 273 275 282 286 285 279 275 271 266 263 261 260 258 258 258 258 258 257 255 252 249 248 246 246 245 244 245 246 247 249 249 249 249 249 249 249 249 250 251 252 254 256 257 256 256 258
280 278 277 274 274 273 265 258 256 255 255 255 248 233 212 187 261 232 219 240 234 243 257 260 258 247 234 258 277 281 282 281 272 270 272 266 264 265 264 264 267 274 282 284 278 273 271 269 267 264 263 262 260 258 258 257 257 257 257 256 253 251 249 247 246 245 245 245 246 248 249 250 251 251 250 249 249 249 249 250 251 253 254 256 256 255
272 278 276 266 260 260 254 250 249 246 244 248 247 233 217 212 215 221 221 221 223 253 264 257 243 226 220 253 281 286 276 280 268 271 276 267 267 274 276 275 278 283 283 278 273 272 270 268 267 265 263 263 263 261 259 257 256 256 256 257 256 254 252 250 248 246 246 245 246 246 248 250 251 252 252 251 249 248 247 248 248 250 251 253 254 254
253 259 263 252 246 246 241 232 231 239 238 234 236 234 226 224 231 248 262 258 267 290 271 239 226 229 231 238 248 250 255 269 286 290 287 282 281 286 285 279 279 281 276 270 268 269 267 261 260 261 261 261 261 261 260 258 256 255 255 255 256 255 254 252 250 249 248 247 247 247 247 248 250 251 251 251 250 249 247 247 247 249 251 251 252 253
252 250 250 243 242 241 238 230 218 222 232 229 225 230 234 234 236 249 265 263 267 282 257 244 252 256 257 257 253 258 268 275 284 287 279 275 273 266 258 251 250 248 247 247 249 256 260 255 254 259 261 260 257 257 259 259 257 254 253 253 253 254 254 252 250 249 249 249 249 249 248 248 248 249 249 250 250 249 248 247 246 247 249 251 252 254
251 250 245 237 235 236 236 236 226 217 224 233 227 231 245 243 233 234 249 257 246 252 249 243 250 255 257 263 263 264 270 274 276 265 243 248 248 237 228 228 231 229 230 237 244 253 259 260 260 261 262 262 259 256 255 256 257 256 253 251 250 251 252 252 250 248 248 248 249 250 250 249 248 248 248 248 248 247 246 246 245 246 247 250 252 253
250 258 258 249 244 246 243 241 240 231 227 237 240 242 248 250 236 227 227 242 238 244 249 238 243 249 250 257 264 263 265 268 264 245 225 229 233 227 221 220 224 227 229 234 241 249 256 259 262 263 264 265 265 263 257 254 255 255 254 251 249 250 251 251 250 248 247 246 247 248 248 247 247 247 246 246 245 245 245 245 245 245 246 247 248 248
245 255 269 256 246 250 253 254 259 255 247 245 249 250 249 251 253 241 238 254 256 250 251 241 240 238 236 245 251 249 251 255 252 243 233 228 229 228 223 220 219 221 226 230 236 244 252 257 261 263 264 265 266 267 264 258 254 253 253 252 248 248 249 250 249 248 246 245 245 244 243 243 243 244 243 242 242 242 242 243 244 243 240 240 242 243
245 245 258 264 256 255 256 255 265 272 264 250 248 252 252 252 252 247 245 248 248 266 277 245 241 221 199 175 148 202 243 247 245 244 236 227 228 231 231 229 224 223 228 235 240 245 250 256 262 265 266 264 261 261 263 261 257 253 252 251 249 246 246 247 247 247 246 244 243 241 239 238 239 241 241 239 238 236 235 237 239 238 236 236 239 242
248 250 257 265 264 262 259 252 256 265 263 251 252 254 258 268 272 264 247 240 237 241 247 247 251 209 178 173 179 213 276 264 251 249 245 237 232 235 238 242 242 239 242 248 252 254 254 257 261 265 266 264 259 256 256 258 258 255 251 250 249 246 244 244 245 245 245 243 242 239 237 236 236 238 239 238 235 232 231 234 236 235 235 236 239 240
259 259 262 265 264 263 259 246 238 240 240 244 252 254 261 277 282 271 258 249 247 249 251 256 258 218 206 219 237 245 272 275 266 262 261 256 251 250 248 250 256 255 255 261 265 265 264 262 262 263 263 261 260 258 256 255 255 254 252 250 249 248 245 243 242 243 243 242 241 238 236 235 235 236 237 236 232 230 230 234 235 235 236 237 237 237
269 263 265 274 275 271 264 252 245 243 245 254 259 261 265 271 268 255 252 265 276 274 263 264 261 222 219 227 252 275 284 284 276 273 274 271 266 266 263 262 267 267 264 268 272 273 272 269 266 266 265 265 264 263 261 258 256 255 255 253 251 250 248 244 242 241 241 241 240 237 235 234 233 234 233 232 230 229 230 233 234 235 236 238 239 239
279 278 288 307 297 285 273 264 262 255 250 257 262 257 253 255 257 258 260 262 261 258 255 255 260 240 225 219 243 288 296 289 282 279 279 279 276 275 276 274 276 278 274 270 270 272 273 272 270 270 271 272 271 269 268 265 262 260 260 258 256 256 253 247 243 241 240 240 238 235 233 231 231 230 229 228 228 228 229 231 233 234 237 240 242 243
285 282 285 292 280 280 274 258 276 286 275 272 270 260 254 259 267 276 281 276 261 252 251 248 255 262 254 243 256 285 293 282 281 280 275 277 279 280 284 286 286 286 284 279 272 269 270 273 273 271 271 272 272 272 272 271 269 267 265 263 260 259 257 251 244 241 240 238 236 233 231 230 229 228 227 225 225 226 228 230 233 234 236 238 239 241
286 281 279 272 260 264 271 268 269 281 285 284 283 279 276 276 279 285 285 274 274 278 266 258 263 274 270 257 263 285 292 280 282 284 278 277 277 278 285 291 293 291 288 286 280 272 270 273 276 276 273 271 270 269 269 270 270 269 267 265 260 258 257 253 246 242 240 238 234 232 230 229 228 227 226 225 224 226 228 232 235 236 236 236 237 238
280 274 275 272 265 265 270 272 272 274 276 278 280 278 275 275 278 279 274 267 271 282 276 268 271 279 279 269 271 287 293 287 285 285 283 282 280 280 283 287 293 295 290 287 284 276 271 273 278 280 277 274 271 267 265 264 265 265 264 261 258 254 253 252 248 244 242 239 234 231 229 229 228 228 227 226 226 227 229 232 235 236 236 235 235 235
278 269 270 270 267 267 269 272 273 274 275 276 275 274 271 272 273 273 271 270 268 264 267 273 275 276 277 276 278 285 289 288 285 283 283 284 284 284 284 284 289 293 291 288 285 280 274 272 275 279 279 276 272 268 263 260 259 261 260 256 251 248 247 247 247 245 243 240 235 231 228 227 227 226 226 225 225 226 227 229 230 231 231 231 231 232
272 268 274 274 271 274 274 275 277 277 277 275 271 270 269 268 268 270 271 272 269 266 267 271 273 274 276 276 277 279 281 283 282 280 280 281 283 286 287 286 286 287 289 287 282 279 276 273 273 276 278 278 274 269 264 260 258 258 258 254 247 242 241 241 242 242 240 238 235 231 228 225 223 223 222 222 221 221 221 222 222 223 223 224 225 227
267 266 275 275 272 275 274 274 276 276 274 272 268 267 268 266 266 268 269 272 273 274 273 271 270 273 273 271 271 273 276 278 278 278 279 280 281 283 285 286 284 282 285 287 280 275 273 272 272 272 275 277 274 269 265 262 259 258 257 254 247 240 237 235 235 235 234 234 232 229 226 223 220 219 218 217 216 215 215 215 215 215 216 217 218 220
264 265 271 272 270 272 273 274 274 272 271 269 265 261 260 261 262 263 266 268 270 272 275 276 274 273 269 266 267 271 274 276 276 276 277 279 278 277 277 280 281 279 280 283 281 275 270 269 269 269 271 272 270 268 265 262 260 259 259 256 248 240 233 229 229 229 228 228 228 225 222 219 217 216 214 213 211 210 210 210 210 211 212 213 214 216
258 257 262 266 266 269 271 273 274 277 275 265 260 260 261 263 265 265 266 264 262 263 267 270 269 269 267 266 266 268 270 272 273 273 274 273 270 268 269 273 275 277 278 280 282 277 270 268 268 269 270 269 267 266 265 262 259 259 262 257 245 235 230 228 227 226 225 225 223 221 219 217 215 213 211 209 208 207 208 208 209 211 211 212 213 215
260 258 259 261 262 266 272 276 275 273 266 262 265 266 264 264 265 267 268 264 258 256 256 259 261 262 263 264 264 264 267 271 272 271 269 268 266 266 268 269 270 274 278 281 283 280 273 270 270 270 270 269 266 266 265 260 254 256 260 255 241 231 228 227 227 224 221 220 218 217 216 214 212 209 208 206 206 206 208 208 209 210 211 212 213 215
255 255 256 254 255 263 272 275 271 261 259 270 275 268 257 256 257 260 263 263 261 258 258 261 263 264 264 265 267 268 270 273 274 273 272 273 274 274 274 273 272 274 277 279 280 279 275 273 273 272 270 267 264 264 264 257 250 252 256 250 238 229 226 225 223 221 218 215 214 213 212 211 208 205 204 203 203 204 205 206 207 209 210 211 213 214
248 247 249 250 251 259 262 251 245 263 275 276 271 261 255 253 254 257 260 260 261 262 264 266 268 271 272 274 275 276 276 277 277 275 272 272 273 272 272 272 272 272 273 274 274 274 274 275 275 273 270 265 261 260 259 253 247 247 252 247 235 226 224 223 222 219 216 214 212 211 209 208 205 202 201 201 200 201 202 204 206 208 209 210 211 212
249 246 245 245 245 247 250 251 258 271 278 272 263 260 259 257 258 260 263 262 262 263 266 268 270 273 276 278 280 280 279 279 278 275 271 269 269 269 268 270 270 268 269 270 270 270 273 275 277 276 270 262 257 255 253 249 244 243 246 245 236 225 222 224 223 220 217 213 209 208 206 204 202 200 199 199 199 200 201 203 205 206 206 207 207 209
246 243 240 238 238 242 249 258 265 268 270 268 263 260 259 260 263 265 269 270 269 270 272 273 274 276 276 276 276 275 275 276 275 274 271 268 268 269 268 269 269 269 271 272 270 270 273 276 279 280 273 259 251 248 246 244 242 241 241 241 236 227 222 222 223 221 218 213 208 204 202 200 199 198 198 199 200 202 203 204 204 204 205 206 206 207
233 237 239 241 247 254 257 261 268 265 264 266 267 267 266 268 273 277 279 278 277 278 279 279 279 280 280 280 278 276 274 272 271 272 271 268 266 266 266 267 270 272 275 276 272 270 273 277 279 280 273 258 245 240 239 236 236 237 236 233 229 224 219 218 219 217 214 211 206 201 199 198 197 197 198 200 202 203 203 203 203 204 205 207 208 208
239 241 244 248 254 258 259 259 265 268 267 265 265 268 271 277 285 288 281 281 285 287 287 285 284 284 285 287 287 286 282 278 273 270 268 267 265 263 264 266 269 271 275 277 276 274 275 276 277 277 272 256 241 234 230 227 226 229 229 226 221 216 213 213 213 211 208 205 202 199 197 197 198 199 200 201 202 202 203 204 206 207 208 209 210 210
266 265 256 252 255 259 260 263 267 269 268 268 270 272 278 283 280 263 265 284 292 294 293 291 289 287 286 286 284 284 283 282 280 275 269 267 265 263 264 265 267 269 272 275 277 278 277 276 275 274 268 253 238 229 222 217 217 220 222 221 216 210 208 208 208 206 203 201 200 199 197 197 198 199 200 201 202 203 206 208 209 210 210 209 209 208
277 277 258 250 255 260 262 265 273 275 271 270 273 274 277 279 272 274 288 294 295 295 295 295 293 291 289 288 286 284 281 278 278 277 274 269 266 265 265 266 267 269 271 272 274 275 275 275 273 270 262 249 237 227 216 209 209 212 215 216 211 206 204 204 203 202 200 199 199 200 199 198 199 200 201 203 205 206 207 208 208 208 207 206 205 205
266 261 255 257 266 269 264 263 273 276 271 271 274 274 276 284 288 291 295 295 292 292 295 297 297 295 293 290 288 288 285 279 275 275 274 272 270 267 266 265 266 268 268 269 269 269 270 269 266 262 257 246 236 227 213 204 203 206 210 211 208 203 202 201 200 199 198 198 198 200 201 201 201 202 203 205 206 207 206 206 205 205 205 204 205 206
260 255 255 259 264 264 257 250 256 265 270 277 283 283 284 288 291 292 292 290 289 290 293 296 297 297 296 293 290 289 288 282 275 271 272 272 271 268 265 263 262 262 261 260 261 262 264 263 258 255 251 244 237 227 212 202 198 200 204 205 204 202 201 200 199 199 198 199 199 199 200 201 202 202 202 203 204 204 204 204 204 204 205 206 208 210
261 261 263 264 263 263 264 265 268 271 275 279 282 285 286 287 288 288 288 286 286 288 291 292 293 295 297 296 291 289 290 287 278 270 268 269 270 269 265 262 259 256 252 250 250 253 256 256 254 251 247 243 237 227 213 202 196 196 199 201 201 201 201 201 200 200 200 201 201 201 201 201 201 201 202 201 202 203 203 204 205 206 209 211 214 217
271 274 276 276 277 277 276 276 278 279 281 283 284 285 286 286 287 287 286 286 286 287 287 288 290 293 297 295 291 288 288 288 283 275 268 266 266 267 266 263 259 255 248 243 243 245 247 249 251 248 245 242 237 228 217 206 197 194 196 198 198 199 200 203 204 203 203 203 204 204 203 203 203 203 203 203 204 204 205 206 208 210 213 216 220 224
277 279 280 280 282 283 282 284 286 287 287 288 287 285 285 286 288 288 285 284 285 284 284 285 287 292 295 294 290 287 286 286 285 280 272 266 263 263 265 265 262 256 248 241 239 239 240 244 247 244 239 237 235 229 220 212 203 196 194 196 197 196 197 201 205 206 206 207 207 207 206 206 205 205 206 207 208 210 212 214 217 220 223 226 230 233
280 283 284 285 286 285 285 288 290 290 290 290 289 288 289 290 291 290 286 284 283 282 282 283 286 290 294 294 290 287 285 285 285 282 277 269 263 260 261 263 263 259 251 243 238 235 235 239 242 240 232 225 225 226 221 215 208 201 197 197 199 201 201 203 205 207 208 209 209 208 207 207 208 209 210 212 214 216 219 222 225 228 230 233 235 237
282 285 287 288 288 287 287 288 290 290 291 291 290 290 289 290 291 291 289 285 282 280 280 282 286 290 293 293 290 286 284 283 284 283 280 273 266 260 257 259 261 259 253 246 239 232 230 232 236 236 228 215 211 213 215 215 210 203 199 198 200 203 206 206 206 207 208 209 209 207 206 207 208 210 211 212 214 217 219 222 225 227 229 231 233 235
285 286 288 288 288 289 289 290 291 292 293 294 294 293 291 289 288 289 289 286 281 279 280 283 286 289 291 292 290 286 282 281 282 283 282 277 269 260 255 255 256 257 253 247 240 234 228 226 229 231 224 211 202 198 200 205 206 202 200 197 196 197 199 200 202 203 204 205 206 206 206 206 206 207 208 209 211 213 216 218 221 223 224 226 229 232
288 289 289 289 289 289 290 292 293 293 293 293 294 293 292 290 289 290 290 288 284 284 285 286 287 289 290 291 291 287 283 280 281 283 283 280 271 260 254 251 250 251 251 246 240 236 229 224 225 225 220 210 201 194 191 191 193 195 198 197 193 192 193 194 196 197 198 199 200 200 200 200 199 199 200 201 204 207 209 212 214 216 220 223 227 232
Height
3035 3036 3037 3038 3038 3039 3039 3040 3041 3040 3041 3042 3042 3042 3043 3043 3044 3045 3045 3043 3042 3043 3042 3042 3042 3042 3042 3043 3044 3045 3045 3045 3045 3046 3047 3047 3048 3050 3052 3053 3054 3055 3055 3056 3056 3056 3057 3058 3060 3062 3063 3064 3065 3068 3070 3071 3073 3075 3077 3079 3080 3081 3083 3085 3086 3087 3089 3091 3092 3093 3094 3094 3095 3097 3099 3102 3103 3103 3104 3105 3106 3108 3108 3109 3111 3112
3033 3034 3035 3036 3037 3037 3038 3039 3039 3039 3040 3040 3040 3040 3040 3041 3041 3042 3043 3041 3040 3041 3039 3039 3039 3037 3038 3039 3040 3041 3041 3041 3042 3043 3044 3045 3046 3046 3048 3049 3050 3052 3053 3053 3054 3054 3054 3055 3057 3059 3059 3060 3062 3063 3066 3067 3069 3071 3073 3075 3077 3078 3080 3083 3084 3084 3085 3087 3089 3090 3090 3091 3092 3095 3096 3098 3099 3100 3101 3101 3102 3104 3106 3107 3108 3109
3031 3032 3033 3034 3035 3036 3036 3037 3037 3038 3038 3038 3039 3039 3038 3039 3039 3040 3040 3038 3037 3038 3037 3037 3035 3032 3033 3034 3035 3037 3038 3038 3040 3040 3041 3042 3043 3043 3044 3045 3047 3048 3050 3051 3051 3052 3052 3052 3054 3055 3056 3057 3058 3059 3061 3063 3065 3067 3069 3071 3073 3074 3076 3079 3081 3081 3082 3084 3085 3086 3087 3088 3089 3091 3093 3093 3094 3096 3098 3098 3099 3101 3102 3103 3104 3106
3030 3031 3032 3033 3033 3034 3034 3034 3035 3036 3036 3036 3036 3036 3036 3037 3038 3037 3037 3036 3036 3036 3035 3035 3032 3027 3028 3030 3030 3033 3034 3035 3037 3037 3038 3039 3039 3040 3041 3042 3043 3044 3046 3047 3048 3049 3049 3049 3050 3051 3052 3053 3054 3055 3056 3058 3061 3063 3064 3066 3068 3070 3072 3074 3077 3078 3079 3080 3081 3082 3083 3084 3086 3087 3088 3089 3090 3093 3095 3095 3095 3096 3098 3099 3100 3102
3029 3029 3030 3031 3032 3032 3033 3032 3033 3033 3033 3033 3034 3034 3034 3035 3036 3035 3035 3034 3034 3035 3034 3034 3029 3022 3022 3025 3024 3028 3030 3030 3033 3034 3034 3036 3036 3037 3037 3039 3041 3042 3043 3043 3044 3045 3046 3046 3046 3047 3048 3050 3050 3051 3052 3054 3056 3058 3060 3062 3064 3065 3067 3070 3072 3074 3075 3076 3077 3079 3080 3081 3082 3083 3084 3085 3086 3088 3090 3091 3092 3093 3094 3095 3097 3098
3026 3027 3028 3029 3029 3030 3030 3030 3031 3031 3030 3031 3031 3031 3031 3032 3033 3032 3032 3032 3032 3033 3032 3033 3029 3018 3017 3022 3021 3023 3025 3025 3028 3029 3029 3031 3032 3034 3034 3035 3038 3040 3040 3040 3040 3041 3042 3043 3043 3043 3044 3045 3047 3048 3049 3050 3051 3053 3055 3057 3059 3060 3062 3064 3067 3068 3069 3071 3073 3074 3076 3078 3079 3079 3080 3081 3082 3083 3084 3086 3089 3090 3090 3091 3093 3094
3023 3023 3025 3026 3026 3027 3027 3027 3029 3029 3028 3029 3028 3029 3029 3029 3030 3030 3031 3031 3030 3031 3031 3032 3032 3020 3011 3014 3018 3020 3021 3021 3023 3025 3026 3026 3027 3029 3031 3032 3034 3036 3037 3037 3037 3038 3039 3039 3040 3040 3040 3041 3042 3044 3045 3046 3047 3048 3050 3052 3054 3055 3057 3059 3061 3063 3064 3066 3067 3069 3071 3073 3076 3077 3077 3077 3078 3079 3080 3082 3084 3086 3086 3087 3088 3090
3020 3020 3022 3023 3023 3024 3024 3025 3026 3027 3026 3025 3025 3025 3026 3026 3027 3028 3028 3029 3029 3030 3029 3029 3033 3026 3010 3005 3011 3016 3017 3018 3019 3021 3023 3023 3024 3025 3027 3028 3029 3031 3033 3034 3034 3035 3035 3035 3036 3036 3037 3037 3038 3039 3041 3042 3043 3044 3045 3047 3049 3051 3052 3054 3056 3057 3059 3060 3062 3064 3066 3068 3070 3072 3074 3075 3074 3074 3076 3078 3080 3082 3083 3083 3084 3086
3017 3018 3019 3019 3020 3020 3021 3022 3024 3025 3024 3023 3022 3022 3023 3024 3025 3025 3026 3027 3028 3028 3026 3024 3029 3027 3009 3001 3008 3012 3012 3014 3016 3018 3020 3021 3022 3022 3023 3024 3025 3026 3028 3029 3030 3031 3031 3032 3032 3033 3033 3034 3034 3035 3036 3038 3040 3041 3042 3042 3044 3046 3048 3049 3051 3052 3054 3055 3057 3059 3061 3063 3065 3066 3068 3070 3071 3070 3071 3072 3074 3077 3079 3080 3081 3082
3015 3015 3015 3016 3016 3016 3018 3020 3020 3022 3022 3020 3019 3019 3020 3021 3022 3023 3023 3024 3026 3026 3021 3017 3022 3022 3007 2999 3008 3010 3009 3011 3013 3015 3017 3017 3018 3018 3019 3020 3021 3023 3024 3025 3026 3027 3028 3028 3028 3029 3030 3030 3030 3031 3032 3034 3035 3037 3038 3038 3039 3041 3043 3045 3046 3047 3049 3050 3051 3053 3055 3057 3059 3061 3063 3064 3066 3066 3067 3068 3069 3071 3074 3076 3078 3080
3011 3011 3010 3011 3012 3013 3015 3015 3016 3018 3019 3017 3017 3017 3018 3018 3019 3020 3020 3021 3024 3021 3013 3009 3015 3020 3008 2998 3004 3008 3008 3010 3011 3012 3014 3014 3015 3015 3015 3016 3017 3018 3020 3021 3022 3023 3024 3025 3025 3025 3026 3026 3027 3027 3028 3029 3031 3032 3033 3034 3035 3036 3038 3040 3041 3042 3044 3045 3046 3048 3050 3051 3053 3055 3057 3059 3060 3062 3063 3065 3066 3067 3069 3071 3073 3075
3007 3006 3005 3006 3008 3010 3011 3010 3012 3014 3014 3015 3015 3015 3016 3016 3016 3017 3017 3019 3020 3012 3004 3005 3011 3016 3009 2998 3000 3005 3005 3008 3010 3009 3011 3013 3014 3014 3014 3014 3015 3015 3015 3017 3019 3019 3020 3022 3022 3022 3022 3023 3023 3024 3024 3025 3026 3027 3028 3029 3030 3032 3033 3034 3036 3038 3039 3040 3041 3043 3044 3045 3047 3049 3052 3054 3056 3057 3059 3061 3062 3063 3065 3067 3068 3070
3001 3002 3002 3003 3004 3006 3007 3006 3007 3008 3010 3011 3011 3013 3015 3015 3016 3015 3013 3012 3011 3003 2999 3004 3007 3007 3004 2999 2997 3000 3002 3004 3006 3007 3008 3010 3011 3012 3012 3012 3012 3012 3012 3014 3015 3016 3017 3017 3018 3019 3019 3019 3019 3020 3020 3021 3022 3023 3024 3025 3026 3027 3028 3030 3031 3033 3034 3035 3036 3038 3039 3040 3041 3043 3046 3048 3051 3053 3054 3056 3058 3059 3061 3062 3064 3066
2997 2998 2999 3000 2999 3001 3002 3002 3003 3004 3005 3006 3006 3009 3011 3013 3015 3013 3008 3005 3003 2999 2997 3001 3004 3002 2999 2996 2994 2995 2998 3000 3002 3003 3004 3006 3007 3008 3009 3010 3010 3010 3011 3011 3012 3013 3013 3013 3013 3014 3015 3015 3015 3016 3016 3017 3018 3019 3020 3021 3021 3022 3023 3025 3026 3028 3029 3031 3032 3033 3034 3035 3036 3038 3041 3043 3045 3047 3049 3051 3053 3055 3056 3058 3060 3062
2997 2995 2995 2996 2996 2996 2997 2999 3000 3002 3002 3002 3002 3004 3004 3005 3006 3003 3001 3000 2998 2996 2995 2998 3001 2997 2993 2992 2992 2993 2995 2997 2998 3000 3002 3003 3004 3005 3007 3008 3008 3008 3008 3008 3008 3008 3009 3009 3009 3009 3010 3011 3011 3011 3012 3013 3013 3014 3015 3016 3017 3018 3019 3020 3021 3023 3024 3026 3027 3028 3030 3031 3032 3033 3035 3038 3040 3042 3044 3046 3048 3050 3051 3053 3055 3056
2995 2993 2992 2993 2993 2993 2994 2996 2998 2999 2999 2999 3000 3001 2999 2998 2999 2997 2995 2995 2996 2995 2994 2995 2994 2990 2989 2990 2991 2992 2993 2995 2997 2998 3000 3001 3001 3003 3004 3004 3004 3004 3004 3003 3002 3002 3002 3004 3004 3004 3005 3006 3006 3006 3007 3008 3009 3010 3011 3011 3012 3013 3014 3015 3016 3018 3019 3021 3022 3024 3025 3026 3027 3028 3030 3032 3034 3036 3039 3041 3043 3045 3047 3049 3050 3051
2993 2991 2990 2990 2991 2991 2992 2993 2995 2996 2995 2995 2997 2996 2995 2996 2998 2997 2994 2993 2996 2994 2991 2991 2989 2987 2989 2988 2989 2991 2992 2995 2995 2994 2995 2996 2996 2997 2996 2996 2997 2997 2997 2996 2996 2996 2997 2998 2999 3000 3000 3000 3001 3002 3002 3003 3004 3005 3006 3007 3007 3008 3009 3011 3012 3013 3014 3016 3017 3018 3020 3021 3022 3024 3025 3027 3029 3031 3034 3036 3038 3041 3043 3044 3045 3046
2991 2988 2987 2988 2989 2989 2989 2990 2991 2993 2992 2992 2993 2993 2994 2994 2994 2995 2993 2992 2993 2990 2985 2986 2985 2986 2988 2985 2986 2990 2991 2991 2989 2988 2990 2991 2990 2989 2988 2989 2990 2991 2991 2990 2990 2992 2993 2994 2995 2995 2996 2995 2996 2997 2997 2998 2999 3000 3001 3002 3003 3003 3004 3006 3007 3008 3010 3011 3012 3013 3015 3016 3017 3019 3021 3023 3025 3027 3029 3031 3033 3036 3038 3039 3040 3042
2988 2986 2984 2985 2988 2987 2987 2987 2988 2990 2991 2990 2990 2992 2993 2992 2990 2991 2990 2988 2988 2986 2981 2981 2982 2983 2985 2984 2984 2988 2987 2984 2982 2984 2986 2985 2985 2985 2984 2985 2986 2985 2986 2986 2986 2987 2988 2989 2990 2990 2991 2992 2992 2992 2993 2994 2995 2995 2996 2997 2998 2998 3000 3001 3002 3004 3005 3006 3008 3009 3010 3011 3013 3014 3016 3018 3020 3022 3025 3027 3029 3031 3033 3034 3036 3037
2987 2987 2982 2981 2985 2985 2984 2986 2985 2986 2989 2989 2988 2989 2990 2990 2988 2986 2985 2984 2984 2982 2978 2978 2978 2979 2981 2981 2981 2982 2981 2977 2977 2981 2981 2979 2981 2981 2980 2980 2980 2981 2981 2980 2982 2983 2983 2984 2985 2986 2987 2988 2989 2989 2988 2989 2990 2991 2991 2992 2993 2994 2995 2996 2997 2999 3000 3001 3003 3005 3006 3007 3009 3010 3012 3014 3016 3018 3021 3023 3025 3026 3028 3029 3031 3032
2984 2985 2981 2978 2981 2982 2982 2984 2985 2984 2985 2985 2985 2985 2986 2985 2984 2982 2981 2981 2982 2981 2978 2976 2976 2977 2978 2978 2977 2976 2975 2974 2975 2976 2975 2975 2976 2976 2975 2977 2977 2978 2978 2977 2977 2978 2978 2979 2979 2981 2982 2984 2985 2985 2985 2985 2985 2986 2987 2987 2988 2989 2990 2991 2992 2994 2995 2996 2998 3000 3002 3004 3005 3006 3008 3010 3012 3014 3016 3018 3020 3022 3023 3025 3027 3028
2982 2982 2979 2977 2977 2979 2980 2983 2983 2982 2981 2981 2982 2982 2982 2982 2981 2981 2979 2978 2979 2978 2976 2976 2975 2975 2975 2974 2973 2972 2970 2970 2971 2970 2969 2971 2971 2971 2972 2973 2974 2975 2975 2975 2975 2974 2974 2975 2975 2976 2977 2978 2980 2981 2981 2982 2981 2982 2983 2983 2983 2984 2985 2987 2988 2989 2990 2992 2993 2995 2997 2999 3001 3003 3004 3006 3008 3010 3012 3014 3016 3018 3019 3021 3022 3023
2979 2979 2976 2974 2974 2975 2976 2978 2979 2978 2978 2978 2979 2979 2980 2980 2980 2981 2979 2976 2975 2974 2974 2974 2972 2972 2973 2971 2969 2969 2968 2967 2967 2966 2965 2967 2968 2969 2969 2970 2970 2971 2971 2971 2972 2972 2972 2972 2972 2972 2973 2973 2975 2976 2977 2978 2978 2978 2978 2979 2979 2980 2981 2982 2983 2985 2986 2987 2989 2990 2992 2995 2997 2999 3000 3002 3004 3006 3008 3010 3012 3013 3015 3017 3018 3019
2977 2976 2974 2972 2970 2970 2971 2973 2974 2976 2976 2976 2976 2978 2978 2977 2977 2977 2976 2976 2974 2971 2973 2972 2967 2967 2970 2968 2967 2967 2964 2963 2963 2962 2962 2964 2966 2967 2968 2968 2968 2969 2969 2969 2969 2969 2968 2968 2969 2969 2970 2970 2970 2971 2972 2973 2974 2974 2975 2975 2975 2975 2977 2978 2979 2980 2981 2983 2984 2986 2988 2990 2992 2994 2996 2998 3000 3001 3004 3006 3008 3009 3011 3013 3014 3015
2974 2973 2973 2972 2969 2966 2967 2970 2971 2972 2974 2973 2973 2974 2974 2973 2973 2973 2973 2974 2972 2969 2972 2970 2963 2963 2966 2965 2965 2963 2959 2959 2959 2959 2960 2961 2962 2964 2965 2966 2966 2966 2967 2966 2965 2965 2964 2965 2966 2966 2967 2967 2966 2967 2968 2968 2970 2971 2971 2971 2971 2972 2972 2973 2975 2976 2977 2978 2979 2981 2983 2985 2987 2989 2991 2993 2995 2997 2999 3002 3003 3005 3007 3009 3010 3011
2972 2971 2971 2972 2970 2966 2965 2968 2969 2969 2970 2969 2969 2970 2970 2970 2971 2971 2971 2972 2969 2967 2968 2965 2961 2962 2963 2964 2962 2958 2954 2955 2955 2956 2958 2959 2958 2959 2961 2962 2963 2962 2963 2963 2962 2962 2962 2962 2963 2963 2964 2964 2963 2963 2964 2964 2965 2966 2967 2967 2968 2968 2968 2969 2970 2971 2973 2974 2975 2977 2979 2981 2983 2985 2987 2989 2991 2993 2995 2997 2999 3001 3003 3005 3006 3008
2968 2968 2969 2970 2969 2966 2965 2966 2967 2969 2968 2966 2966 2967 2967 2968 2969 2970 2970 2968 2967 2966 2962 2960 2961 2961 2960 2961 2958 2952 2951 2953 2952 2952 2955 2956 2956 2956 2957 2958 2960 2960 2960 2960 2960 2960 2960 2960 2960 2960 2961 2961 2960 2960 2960 2960 2961 2962 2963 2964 2964 2965 2965 2965 2966 2967 2969 2970 2971 2973 2975 2977 2979 2981 2983 2985 2987 2989 2992 2993 2995 2997 2999 3001 3002 3004
2965 2965 2965 2966 2965 2964 2964 2964 2965 2966 2965 2964 2965 2963 2963 2964 2965 2967 2966 2965 2967 2964 2957 2957 2961 2958 2955 2957 2955 2950 2948 2950 2950 2950 2950 2952 2953 2954 2954 2955 2956 2957 2958 2957 2957 2957 2957 2957 2957 2957 2957 2957 2957 2957 2957 2957 2958 2958 2959 2960 2961 2961 2962 2962 2963 2964 2965 2966 2968 2969 2971 2973 2975 2977 2979 2981 2984 2986 2988 2990 2992 2993 2995 2997 2998 3000
2962 2961 2962 2962 2961 2961 2962 2961 2962 2962 2961 2962 2963 2961 2961 2960 2960 2960 2959 2961 2964 2960 2954 2957 2959 2954 2954 2956 2953 2948 2946 2948 2949 2948 2948 2949 2949 2950 2951 2951 2953 2954 2955 2954 2954 2954 2954 2954 2953 2953 2953 2953 2953 2953 2953 2954 2954 2955 2955 2956 2956 2957 2958 2959 2959 2960 2961 2963 2964 2966 2967 2969 2971 2973 2976 2978 2980 2982 2984 2986 2988 2990 2992 2993 2995 2997
2960 2958 2958 2959 2958 2958 2958 2958 2958 2959 2958 2958 2958 2958 2958 2957 2956 2954 2953 2955 2957 2955 2954 2957 2954 2951 2954 2954 2950 2946 2945 2947 2948 2947 2946 2946 2946 2946 2947 2948 2949 2951 2952 2952 2951 2950 2950 2951 2950 2950 2949 2949 2949 2950 2950 2950 2950 2951 2951 2952 2952 2953 2953 2955 2955 2956 2958 2959 2961 2962 2964 2966 2968 2970 2972 2974 2976 2978 2980 2982 2984 2986 2988 2990 2992 2994
2957 2955 2956 2957 2955 2953 2954 2955 2955 2955 2954 2954 2954 2954 2954 2953 2953 2952 2950 2951 2951 2949 2950 2952 2949 2949 2951 2949 2945 2943 2943 2944 2945 2945 2944 2944 2943 2944 2944 2945 2946 2947 2948 2949 2948 2947 2947 2947 2947 2947 2946 2946 2946 2946 2946 2946 2946 2947 2947 2948 2948 2948 2949 2951 2952 2953 2955 2956 2958 2960 2961 2963 2965 2967 2968 2970 2972 2974 2977 2979 2981 2983 2985 2986 2989 2990
2955 2953 2953 2955 2952 2949 2951 2952 2951 2951 2951 2949 2949 2950 2949 2949 2949 2949 2949 2949 2948 2946 2946 2945 2944 2944 2945 2943 2941 2941 2941 2940 2940 2941 2941 2941 2941 2942 2941 2942 2942 2943 2944 2945 2944 2943 2943 2943 2943 2943 2943 2943 2943 2942 2942 2942 2942 2943 2943 2944 2944 2945 2946 2947 2948 2950 2952 2953 2955 2957 2958 2960 2962 2964 2966 2967 2969 2971 2973 2975 2977 2979 2981 2983 2986 2988
2952 2950 2950 2951 2949 2946 2948 2949 2949 2949 2947 2943 2944 2946 2946 2946 2946 2945 2945 2945 2945 2945 2944 2941 2940 2940 2939 2939 2939 2939 2938 2937 2936 2937 2938 2938 2939 2938 2938 2938 2939 2939 2939 2940 2940 2939 2939 2939 2939 2939 2939 2939 2938 2938 2938 2938 2938 2939 2940 2941 2942 2942 2943 2944 2946 2947 2949 2951 2953 2954 2956 2957 2959 2961 2963 2965 2967 2969 2971 2973 2975 2977 2979 2981 2983 2985
2947 2947 2947 2948 2947 2944 2945 2947 2948 2945 2939 2937 2941 2944 2943 2943 2942 2941 2941 2940 2940 2941 2940 2938 2936 2936 2936 2936 2936 2936 2936 2934 2932 2934 2935 2935 2935 2934 2934 2934 2935 2935 2935 2935 2935 2935 2935 2935 2935 2934 2934 2934 2934 2935 2934 2934 2935 2936 2937 2938 2939 2940 2941 2942 2943 2945 2946 2948 2950 2951 2953 2955 2957 2959 2961 2963 2965 2967 2969 2970 2972 2974 2977 2979 2980 2982
2943 2944 2944 2945 2945 2942 2944 2946 2942 2936 2933 2937 2939 2940 2939 2939 2939 2938 2937 2936 2936 2937 2936 2934 2933 2933 2933 2933 2933 2933 2932 2930 2929 2930 2932 2931 2931 2931 2930 2930 2931 2931 2931 2931 2932 2932 2931 2931 2931 2931 2931 2931 2931 2931 2931 2931 2931 2932 2934 2935 2936 2937 2938 2939 2940 2942 2943 2945 2946 2948 2950 2952 2955 2957 2959 2961 2962 2964 2966 2968 2970 2972 2974 2976 2978 2980
2940 2941 2941 2942 2942 2941 2942 2942 2936 2930 2933 2938 2937 2936 2937 2936 2935 2935 2934 2933 2933 2933 2932 2931 2930 2929 2930 2930 2930 2929 2929 2927 2926 2926 2928 2928 2927 2927 2926 2926 2926 2927 2927 2927 2928 2928 2927 2927 2927 2927 2927 2927 2928 2928 2928 2928 2928 2929 2931 2932 2933 2934 2935 2936 2937 2938 2939 2941 2943 2946 2948 2950 2953 2955 2956 2958 2960 2962 2964 2966 2968 2969 2971 2973 2975 2977
2937 2938 2939 2939 2939 2939 2939 2937 2934 2932 2933 2934 2933 2933 2933 2932 2932 2932 2930 2929 2930 2930 2929 2928 2927 2926 2927 2927 2926 2925 2925 2924 2922 2922 2924 2923 2922 2922 2922 2921 2921 2922 2922 2922 2923 2923 2923 2923 2923 2923 2923 2924 2924 2925 2925 2925 2926 2927 2928 2929 2930 2930 2931 2933 2935 2936 2937 2938 2940 2943 2945 2948 2950 2953 2955 2957 2958 2960 2962 2964 2965 2967 2969 2971 2973 2975
2936 2936 2937 2937 2937 2936 2936 2935 2933 2931 2929 2930 2930 2930 2930 2929 2929 2929 2927 2926 2927 2927 2926 2925 2924 2924 2923 2923 2922 2921 2920 2919 2918 2918 2919 2919 2917 2918 2918 2917 2917 2917 2917 2918 2918 2919 2918 2918 2918 2919 2919 2920 2921 2921 2922 2922 2923 2923 2925 2926 2927 2927 2928 2930 2932 2934 2935 2937 2938 2940 2943 2945 2948 2950 2952 2954 2956 2958 2960 2962 2963 2965 2967 2969 2971 2972
2934 2934 2935 2936 2935 2935 2935 2933 2931 2929 2927 2928 2928 2927 2928 2927 2926 2927 2925 2923 2923 2923 2922 2922 2921 2920 2919 2919 2917 2916 2916 2915 2914 2914 2914 2914 2913 2913 2913 2913 2913 2913 2913 2913 2913 2914 2914 2914 2914 2914 2915 2916 2917 2918 2918 2919 2920 2920 2921 2923 2924 2924 2925 2927 2929 2931 2934 2936 2937 2938 2940 2942 2945 2947 2950 2952 2954 2956 2958 2960 2962 2963 2965 2967 2969 2970
2934 2934 2934 2934 2933 2933 2933 2932 2930 2928 2926 2926 2926 2925 2926 2925 2925 2925 2922 2919 2920 2921 2919 2919 2918 2917 2916 2915 2914 2913 2912 2911 2911 2911 2910 2909 2909 2908 2908 2908 2909 2909 2909 2909 2909 2909 2910 2910 2910 2910 2911 2912 2913 2914 2914 2915 2916 2917 2918 2920 2921 2921 2923 2925 2927 2929 2931 2933 2936 2937 2938 2940 2942 2944 2947 2949 2951 2953 2956 2958 2959 2961 2963 2965 2967 2968
2933 2933 2932 2932 2931 2931 2931 2929 2928 2926 2925 2924 2924 2924 2924 2923 2923 2922 2919 2917 2918 2918 2917 2916 2915 2913 2913 2912 2911 2910 2909 2908 2907 2907 2906 2906 2905 2904 2904 2904 2905 2905 2905 2905 2905 2905 2906 2906 2907 2907 2907 2908 2909 2910 2911 2912 2913 2914 2915 2917 2918 2919 2921 2923 2925 2926 2928 2931 2934 2936 2937 2938 2940 2942 2944 2946 2949 2951 2953 2955 2957 2959 2961 2962 2964 2966
2932 2931 2930 2930 2930 2929 2928 2928 2926 2924 2923 2923 2922 2922 2922 2921 2920 2919 2917 2916 2916 2915 2914 2913 2911 2910 2909 2909 2907 2907 2906 2905 2904 2903 2903 2902 2901 2901 2900 2900 2900 2901 2901 2902 2902 2903 2903 2903 2903 2903 2904 2904 2905 2906 2908 2908 2909 2911 2912 2914 2916 2917 2919 2921 2923 2924 2926 2928 2931 2933 2935 2937 2938 2940 2942 2945 2947 2949 2951 2953 2954 2956 2958 2960 2961 2963
2930 2930 2929 2928 2928 2927 2927 2926 2923 2921 2920 2921 2921 2920 2920 2919 2918 2917 2916 2914 2913 2912 2912 2910 2908 2906 2905 2904 2904 2903 2902 2901 2900 2899 2899 2898 2897 2897 2897 2897 2897 2897 2897 2898 2899 2900 2900 2900 2900 2900 2900 2901 2901 2903 2904 2905 2906 2908 2909 2911 2913 2915 2917 2919 2921 2923 2925 2926 2928 2931 2933 2935 2937 2939 2941 2943 2945 2947 2949 2950 2952 2954 2956 2957 2959 2961
2928 2927 2927 2926 2926 2925 2924 2923 2921 2919 2919 2920 2919 2918 2917 2916 2915 2914 2913 2911 2910 2909 2908 2907 2905 2903 2901 2900 2900 2899 2898 2897 2896 2895 2895 2895 2894 2894 2894 2893 2893 2894 2894 2895 2895 2896 2896 2897 2897 2898 2898 2898 2898 2899 2901 2902 2903 2905 2907 2908 2911 2913 2915 2917 2920 2921 2923 2925 2927 2929 2931 2933 2935 2937 2939 2941 2943 2945 2947 2949 2950 2952 2954 2955 2957 2958
2925 2925 2924 2924 2924 2923 2921 2920 2919 2918 2918 2917 2916 2915 2914 2913 2912 2911 2909 2908 2907 2906 2905 2903 2902 2900 2898 2896 2895 2895 2895 2894 2892 2892 2891 2891 2891 2890 2890 2890 2890 2890 2891 2892 2892 2893 2893 2893 2894 2895 2895 2895 2895 2896 2898 2899 2901 2903 2905 2907 2909 2912 2914 2916 2918 2920 2922 2924 2926 2928 2929 2931 2933 2936 2938 2939 2941 2943 2945 2947 2948 2950 2951 2953 2954 2955
2922 2922 2922 2921 2921 2920 2918 2916 2915 2915 2914 2914 2913 2911 2910 2909 2908 2907 2906 2905 2904 2902 2901 2900 2898 2897 2896 2894 2892 2892 2891 2890 2889 2888 2888 2888 2888 2887 2887 2887 2887 2887 2888 2888 2889 2890 2890 2890 2891 2891 2892 2892 2893 2894 2895 2897 2898 2900 2903 2905 2908 2910 2912 2914 2916 2918 2920 2922 2924 2926 2928 2930 2932 2934 2936 2938 2939 2941 2943 2944 2946 2947 2949 2950 2951 2953
2920 2920 2919 2918 2918 2917 2914 2912 2912 2911 2910 2910 2909 2907 2906 2906 2905 2904 2902 2901 2900 2899 2897 2896 2895 2894 2893 2891 2889 2888 2888 2887 2886 2885 2884 2884 2884 2884 2884 2884 2884 2884 2885 2885 2886 2886 2887 2887 2888 2888 2889 2890 2891 2891 2893 2895 2896 2898 2901 2903 2906 2908 2910 2911 2913 2916 2918 2920 2922 2924 2926 2928 2930 2932 2934 2936 2937 2939 2941 2942 2944 2945 2947 2948 2949 2951
2917 2917 2916 2915 2914 2913 2911 2909 2908 2907 2906 2906 2905 2903 2902 2901 2901 2900 2899 2897 2896 2895 2894 2893 2892 2891 2890 2888 2886 2885 2885 2884 2883 2882 2881 2881 2881 2881 2881 2881 2881 2882 2882 2882 2883 2883 2884 2884 2886 2887 2887 2888 2889 2890 2891 2893 2895 2896 2898 2901 2903 2905 2907 2909 2911 2913 2916 2918 2919 2921 2923 2925 2927 2929 2931 2933 2935 2937 2938 2940 2941 2943 2944 2946 2947 2948
2914 2913 2913 2911 2910 2909 2908 2906 2905 2904 2902 2902 2901 2900 2899 2898 2896 2896 2895 2894 2893 2891 2890 2889 2888 2887 2886 2885 2883 2882 2882 2881 2880 2879 2878 2878 2878 2878 2878 2878 2879 2879 2879 2879 2880 2880 2881 2882 2883 2885 2886 2886 2887 2888 2890 2892 2894 2895 2897 2899 2901 2903 2905 2907 2909 2911 2913 2915 2917 2919 2920 2922 2924 2926 2928 2930 2931 2933 2935 2936 2938 2940 2941 2942 2944 2945
2912 2910 2909 2908 2906 2905 2904 2903 2902 2901 2899 2898 2897 2895 2895 2894 2893 2892 2891 2890 2889 2888 2887 2886 2885 2884 2883 2881 2880 2880 2879 2879 2877 2876 2875 2875 2875 2875 2876 2876 2876 2876 2876 2877 2877 2878 2879 2880 2881 2883 2884 2885 2886 2887 2889 2891 2893 2895 2897 2898 2900 2901 2903 2904 2906 2908 2910 2912 2914 2916 2917 2919 2921 2922 2924 2926 2928 2929 2931 2933 2935 2936 2938 2939 2940 2942
2909 2907 2906 2905 2903 2901 2900 2900 2899 2898 2896 2895 2893 2891 2890 2889 2889 2888 2887 2886 2885 2884 2883 2882 2882 2881 2880 2878 2877 2877 2877 2876 2875 2874 2873 2873 2873 2873 2873 2873 2873 2874 2874 2874 2875 2875 2876 2878 2879 2881 2883 2883 2884 2886 2887 2889 2892 2894 2897 2898 2899 2900 2901 2903 2904 2906 2908 2909 2911 2913 2915 2916 2918 2920 2922 2923 2925 2927 2929 2930 2932 2934 2935 2936 2937 2938